Location: Bush Observatory
(40.2653°N, 94.3194°W)
Time: 17:03:54
(UTC-05:00)

JAS-2 - Visible Passes

Search period start: 27 May 2016 00:00
Search period end: 06 June 2016 00:00
Orbit: 801 x 1321 km, 98.6° (Epoch: 26 May)

Date Brightness Start Highest point End Pass type
(mag) Time Alt. Az. Time Alt. Az. Time Alt. Az.
27 May 10.6 01:27:34 10° NNE 01:34:21 37° E 01:35:43 34° ESE visible
27 May 10.5 03:12:25 10° N 03:19:23 43° WNW 03:22:13 30° WSW visible
28 May 11.7 00:35:09 10° NE 00:38:28 14° E 00:40:00 13° E visible
28 May 9.8 02:17:12 10° NNE 02:24:43 84° ESE 02:26:29 55° S visible
28 May 11.5 04:03:38 10° NNW 04:08:39 20° NW 04:12:58 11° W visible
29 May 10.7 01:22:51 10° NNE 01:29:24 34° E 01:30:44 32° ESE visible
29 May 10.4 03:07:34 10° N 03:14:32 45° WNW 03:17:13 31° WSW visible
30 May 11.8 00:30:55 10° ENE 00:33:27 12° E 00:35:00 11° E visible
30 May 9.8 02:12:24 10° NNE 02:19:48 79° ESE 02:21:29 54° S visible
30 May 11.4 03:58:44 10° NNW 04:03:50 21° WNW 04:07:58 12° W visible
31 May 10.8 01:18:08 10° NNE 01:24:25 31° E 01:25:44 29° ESE visible
31 May 10.3 03:02:43 10° N 03:09:39 47° WNW 03:12:13 33° WSW visible
01 Jun 11.8 00:27:07 10° ENE 00:28:25 11° E 00:29:43 10° E visible
01 Jun 9.8 02:07:36 10° NNE 02:14:52 74° E 02:16:28 54° SSE visible
01 Jun 11.4 03:53:49 10° NNW 03:59:00 22° WNW 04:02:57 13° W visible
02 Jun 10.9 01:13:26 10° NNE 01:19:27 29° E 01:20:43 27° ESE visible
02 Jun 10.2 02:57:51 10° N 03:04:46 50° WNW 03:07:12 35° WSW visible
03 Jun 9.8 02:02:48 10° NNE 02:09:56 69° E 02:11:26 53° SSE visible
03 Jun 11.3 03:48:54 10° N 03:54:09 23° WNW 03:57:55 14° W visible
04 Jun 10.9 01:08:45 10° NE 01:14:26 26° E 01:15:40 25° ESE visible
04 Jun 10.1 02:53:00 10° N 02:59:52 53° WNW 03:02:09 37° WSW visible
05 Jun 9.8 01:58:00 10° NNE 02:04:59 64° E 02:06:23 51° SSE visible
05 Jun 11.2 03:43:59 10° N 03:49:17 23° WNW 03:52:52 15° W visible
